Location: Crescent
(42.8242°N, 73.7329°W)
Time: 23:47:42
(UTC+00:00)

Tiros 1 - Pass Details

Date: 23 February 2026
Orbit: 618 x 649 km, 48.4° (Epoch: 9 March)

Event Time Altitude Azimuth Distance (km) Brightness Sun altitude
Rises 11:35:41 0° 236° (SW) 2,923 10.1 -1.6°
Reaches altitude 10° 11:38:01 10° 234° (SW) 2,012 9.3 -1.2°
Maximum altitude 11:42:38 73° 150° (SSE) 659 7.4 -0.4°
Drops below altitude 10° 11:47:13 10° 66° (ENE) 2,000 10.6 0.4°
Sets 11:49:32 0° 65° (ENE) 2,904 11.4 0.8°
